Find Kosmos-509

NORAD ID: 6122 Int'l Des: 1972-057 Owner: OKB10 Country: SU operational
LEOCIRCULAR

当前视图

正在加载3D地球...

关于 Kosmos-509

正在加载描述...

即将过境

Passes for default location (London). Set your location on the main map for personalized predictions.

高度历史

Loading altitude history...

两行轨道根数

1 6122U 72057F 26151.22918321 -.00000001 00000-0 10154-3 0 9991
2 6122 74.0277 243.9801 0015792 1.5196 25.1679 12.44996744447884
Epoch: May 31, 2026 • Age: 3 hours

当前状态

高度 1499.0 km
速度 7.11 km/s
星下点 21.94°N, 46.5°E
类型 other

Most Searched